Location: Dead Woman Crossing
(43.5369°N, 106.3228°W)
Time: 06:13:09
(UTC+00:00)

First-Move - Visible Passes

Search period start: 28 June 2022 00:00
Search period end: 08 July 2022 00:00
Orbit: 571 x 660 km, 97.6° (Epoch: 27 June)

Date Brightness Start Highest point End Pass type
(mag) Time Alt. Az. Time Alt. Az. Time Alt. Az.
28 Jun ? 10:04:03 10° NE 10:06:52 16° E 10:09:40 10° SE visible
29 Jun ? 10:19:22 10° NE 10:22:58 23° E 10:26:34 10° SSE visible
30 Jun ? 10:34:57 10° NNE 10:39:00 34° E 10:43:07 10° SSE visible
01 Jul ? 10:50:41 10° NNE 10:55:02 50° E 10:59:26 10° S visible
03 Jul ? 09:49:02 10° ENE 09:50:25 11° E 09:51:48 10° ESE visible
04 Jul ? 10:03:38 10° NE 10:06:32 17° E 10:09:26 10° SE visible
05 Jul ? 10:18:56 10° NE 10:22:36 24° E 10:26:16 10° SSE visible
06 Jul ? 10:34:29 10° NNE 10:38:38 34° E 10:42:46 10° SSE visible
07 Jul ? 10:50:12 10° NNE 10:54:37 51° E 10:59:02 10° S visible
